sat.trackr.live / text

‹ back to catalog

STARLINK-5800

NORAD 56041 · 2023-042BH

PAYLOAD ACTIVE UNKNOWN

§ Identity

Operator
Country
US
Launch date
2023-03-24
Launch site
AFETR
Launch vehicle
Mass (kg)
RCS (m²)

Purposes: comms

External: N2YO · Heavens-Above · Gunter

§ Orbital elements

Epoch: 2026-05-25T04:32:47.186592Z

Period
94.27 min
Inclination
43.0010°
Eccentricity
0.0001885
Mean motion
15.27585656 rev/d
Perigee alt
481.7 km
Apogee alt
484.3 km
Semi-major
6,861.2 km
B*
-7.8465e-6
RAAN
321.9550°
Arg perigee
245.6177°
Mean anomaly
114.4478°
Rev number
17,486

§ Raw data

STARLINK-58001 56041U 23042BH  26145.18943503 -.00000478  00000+0 -78465-5 0  99932 56041  43.0010 321.9550 0001885 245.6177 114.4478 15.27585656174860

JSON: /api/v1/satellites/56041 · /tle

For live sub-satellite position, see the globe view (requires WebGL).

§ Visibility from observer

Set your observer location to see the next 7 days of passes ≥ 10°. The values pass through the URL so the page stays shareable.

No JS? Fill the form by hand. The geolocation button needs JavaScript.